User: anonymous   Login
Location: Unspecified
(0.0000°N, 0.0000°E)
Time: 20:32:31
(UTC+00:00)
Language:

USA 32 - Orbit

View from above orbital plane
View from above orbital plane
View from above satellite
View from above satellite

Ground track
Ground track

The orbit data is extracted from the following two-line orbital elements,

1 19460U 88078A   21135.07148574 0.00000040  00000-0  14487-4 0    04
2 19460  84.9840 113.1073 0001105 315.0956  44.9042 14.33525061    00
Epoch (UTC): 15 May 2021 01:42:56
Eccentricity: 0.0001105
inclination: 84.9840°
perigee height: 779 km
apogee height: 781 km
right ascension of ascending node: 113.1073°
argument of perigee: 315.0956°
revolutions per day: 14.33525061
mean anomaly at epoch: 44.9042°
orbit number at epoch: 0

The dashed part of the orbit path shows where the satellite is in the earth's shadow,  

DLR